Find Starlink 31905

NORAD ID: 59896 Int'l Des: 2024-100 Owner: SPXS Country: US Constellation: starlink operational
LEOCIRCULAR

現在のビュー

3D地球を読み込み中...

About Starlink 31905

Starlink 31905 (NORAD 59896) is a starlink constellation satellite (v2 mini) launched May 28, 2024 by SPXS of US. It operates in LEO, CIRCULAR orbit with a mass of 730.00 kg.

次回通過

Passes for default location (London). Set your location on the main map for personalized predictions.

高度履歴

Loading altitude history...

軌道要素

1 59896U 24100M 26237.04664214 .00000811 00000-0 38995-4 0 9999
2 59896 43.0030 251.2576 0001415 264.4846 95.5845 15.27578410126940
Epoch: Aug 25, 2026 • Age: 14 hours

現在のステータス

高度 483.0 km
遠地点 / 近地点 N/A
速度 7.63 km/s
衛星直下点 -0.96°S, 44.46°E
打ち上げ日 May 28, 2024
運用期間 2.2 years
タイプ internet

技術仕様

分類 Payload
質量 730.00 kg
乾燥質量 700.00 kg
総質量 730.00 kg
長さ 0.30 m
直径 4.10 m
スパン 29.00 m
形状 Box + pan
製造者 SPXS
バスタイプ Starlink V2M
フェーズステータス In Orbit
所有者/国 SPXS/US

Most Searched